This is the latest recevied weather packets stored in our database for station/object K0APR. If no packets are shown the sender has not sent any weather packets the latest 10 day(s).
| Time | Temp. | Humidity | Pressure | Rain* | Wind** | Luminosity | Snow |
|---|---|---|---|---|---|---|---|
| 1777915396 | 14.44° C | 39% | 1003.2 hPa | 0 mm | - | 583 W/m² | - |
| 1777915092 | 14.44° C | 40% | 1002.9 hPa | 0 mm | - | 507 W/m² | - |
| 1777914790 | 14.44° C | 40% | 1002.9 hPa | 0 mm | - | 480 W/m² | - |
| 1777914487 | 15° C | 39% | 1002.9 hPa | 0 mm | - | 642 W/m² | - |
| 1777914184 | 14.44° C | 38% | 1002.4 hPa | 0 mm | - | 723 W/m² | - |
| 1777913880 | 14.44° C | 37% | 1002.9 hPa | 0 mm | - | 654 W/m² | - |
| 1777913576 | 14.44° C | 37% | 1002.4 hPa | 0 mm | - | 611 W/m² | - |
| 1777913272 | 14.44° C | 38% | 1002.9 hPa | 0 mm | - | 629 W/m² | - |
| 1777912970 | 14.44° C | 40% | 1002.9 hPa | 0 mm | - | 537 W/m² | - |
| 1777912666 | 15° C | 41% | 1002.4 hPa | 0 mm | - | 586 W/m² | - |
| 1777912362 | 15° C | 46% | 1002.4 hPa | 0 mm | - | 561 W/m² | - |
| 1777912058 | 14.44° C | 47% | 1002.4 hPa | 0 mm | - | 637 W/m² | - |
| 1777911754 | 14.44° C | 48% | 1002.4 hPa | 0 mm | - | 660 W/m² | - |
| 1777911451 | 14.44° C | 52% | 1002.4 hPa | 0 mm | - | 709 W/m² | - |
| 1777911148 | 14.44° C | 48% | 1002.4 hPa | 0 mm | - | 590 W/m² | - |
| 1777910846 | 14.44° C | 48% | 1002.1 hPa | 0 mm | - | 611 W/m² | - |
| 1777910542 | 14.44° C | 44% | 1002.1 hPa | 0 mm | - | 580 W/m² | - |
| 1777910239 | 14.44° C | 45% | 1002.1 hPa | 0 mm | - | 363 W/m² | - |
| 1777909936 | 14.44° C | 45% | 1002.1 hPa | 0 mm | - | 390 W/m² | - |
| 1777909633 | 14.44° C | 47% | 1001.8 hPa | 0 mm | - | 419 W/m² | - |
| 1777909330 | 14.44° C | 45% | 1001.8 hPa | 0 mm | - | 383 W/m² | - |
| 1777909028 | 15° C | 48% | 1001.8 hPa | 0 mm | - | 559 W/m² | - |
| 1777908725 | 14.44° C | 47% | 1001.8 hPa | 0 mm | - | 536 W/m² | - |
| 1777908422 | 14.44° C | 48% | 1001.8 hPa | 0 mm | - | 524 W/m² | - |
| 1777908119 | 14.44° C | 48% | 1001.8 hPa | 0 mm | - | 470 W/m² | - |
* Rain latest hour (hover to see other rain measurements)
** Current wind speed in m/s (hover to see current wind gust speed)